When you browse on this site, cookies collect data to enhance your experience and personalize the content and advertising you see.
Visit our Privacy Policy to learn more. By continuing to use the site, you agree to this use of cookies and data.
  • In Portugal
  • List of Countries
  • For 7 days
  • Water Temperature
  • Satellite Maps
  • Weather Map
  • Weather Widgets
  • user-avatar
    Login

    Hourly Weather Igls

    Today, 20 July, Saturday

    Time Temperature Precipitation Wind Pressure Humidity
    00:00 +15°C° 0 mm 1 mps 686 mmHg 91%
    01:00 +16°C° 0 mm 2 mps 686 mmHg 91%
    02:00 +15°C° 0 mm 2 mps 686 mmHg 90%
    03:00 +15°C° 0 mm 2 mps 686 mmHg 90%
    04:00 +15°C° 0 mm 2 mps 686 mmHg 90%
    05:00 +17°C° 0 mm 2 mps 686 mmHg 87%
    06:00 +19°C° 0 mm 1 mps 687 mmHg 85%
    07:00 +21°C° 0 mm 1 mps 687 mmHg 81%
    08:00 +24°C° 0.1 mm 1 mps 688 mmHg 71%
    09:00 +26°C° 0.1 mm 1 mps 688 mmHg 60%
    10:00 +29°C° 0.1 mm 1 mps 688 mmHg 50%
    11:00 +29°C° 0.3 mm 1 mps 688 mmHg 48%
    12:00 +29°C° 0.3 mm 1 mps 688 mmHg 45%
    13:00 +30°C° 0.3 mm 1 mps 688 mmHg 43%
    14:00 +29°C° 0.5 mm 1 mps 688 mmHg 46%
    15:00 +28°C° 0.5 mm 1 mps 688 mmHg 48%
    16:00 +28°C° 0.5 mm 1 mps 688 mmHg 50%
    17:00 +25°C° 2.9 mm 1 mps 688 mmHg 64%
    18:00 +23°C° 2.9 mm 2 mps 687 mmHg 78%
    19:00 +20°C° 2.9 mm 2 mps 687 mmHg 92%
    20:00 +20°C° 0.8 mm 1 mps 687 mmHg 92%
    21:00 +19°C° 0.8 mm 1 mps 688 mmHg 92%
    22:00 +18°C° 0.8 mm 1 mps 688 mmHg 93%
    23:00 +18°C° 0 mm 1 mps 688 mmHg 91%

    Tomorrow, 21 July, Sunday

    Time Temperature Precipitation Wind Pressure Humidity
    00:00 +18°C° 0 mm 1 mps 688 mmHg 89%
    01:00 +18°C° 0 mm 1 mps 688 mmHg 87%
    02:00 +18°C° 0 mm 1 mps 688 mmHg 86%
    03:00 +18°C° 0 mm 1 mps 688 mmHg 85%
    04:00 +18°C° 0 mm 1 mps 688 mmHg 84%
    05:00 +19°C° 0 mm 1 mps 688 mmHg 82%
    06:00 +20°C° 0 mm 1 mps 689 mmHg 80%
    07:00 +19°C° 0 mm 0 mps 689 mmHg 78%
    08:00 +22°C° 0.3 mm 1 mps 690 mmHg 75%
    09:00 +23°C° 0.3 mm 1 mps 690 mmHg 73%
    10:00 +24°C° 0.3 mm 2 mps 690 mmHg 70%
    11:00 +25°C° 0.9 mm 2 mps 690 mmHg 72%
    12:00 +25°C° 0.9 mm 1 mps 690 mmHg 74%
    13:00 +25°C° 0.9 mm 1 mps 690 mmHg 76%
    14:00 +25°C° 1 mm 1 mps 690 mmHg 78%
    15:00 +24°C° 1 mm 1 mps 691 mmHg 79%
    16:00 +24°C° 1 mm 1 mps 691 mmHg 81%
    17:00 +23°C° 0.3 mm 1 mps 691 mmHg 84%
    18:00 +23°C° 0.3 mm 1 mps 690 mmHg 87%
    19:00 +22°C° 0.3 mm 1 mps 690 mmHg 90%
    20:00 +20°C° 0.2 mm 1 mps 691 mmHg 92%
    21:00 +19°C° 0.2 mm 1 mps 691 mmHg 94%
    22:00 +16°C° 0.2 mm 0 mps 691 mmHg 95%
    23:00 +15°C° 0 mm 0 mps 691 mmHg 95%

    Day after tomorrow, 22 July, Monday

    Time Temperature Precipitation Wind Pressure Humidity
    00:00 +15°C° 0 mm 0 mps 691 mmHg 95%
    01:00 +15°C° 0 mm 1 mps 691 mmHg 95%
    02:00 +15°C° 0 mm 1 mps 691 mmHg 94%
    03:00 +15°C° 0 mm 1 mps 690 mmHg 93%
    04:00 +15°C° 0 mm 1 mps 690 mmHg 92%
    05:00 +15°C° 0 mm 0 mps 691 mmHg 90%
    06:00 +17°C° 0 mm 0 mps 691 mmHg 87%
    07:00 +18°C° 0 mm 0 mps 692 mmHg 85%
    08:00 +23°C° 0 mm 1 mps 692 mmHg 74%
    09:00 +25°C° 0 mm 1 mps 693 mmHg 63%
    10:00 +28°C° 0 mm 1 mps 693 mmHg 53%
    11:00 +28°C° 0 mm 1 mps 693 mmHg 48%
    12:00 +29°C° 0 mm 1 mps 693 mmHg 44%
    13:00 +30°C° 0 mm 2 mps 693 mmHg 40%
    14:00 +30°C° 0 mm 2 mps 692 mmHg 42%
    15:00 +30°C° 0 mm 2 mps 692 mmHg 43%
    16:00 +29°C° 0 mm 2 mps 692 mmHg 45%
    17:00 +28°C° 0 mm 2 mps 692 mmHg 56%
    18:00 +26°C° 0 mm 2 mps 691 mmHg 67%
    19:00 +24°C° 0 mm 1 mps 691 mmHg 78%
    20:00 +22°C° 0 mm 1 mps 691 mmHg 84%
    21:00 +21°C° 0 mm 1 mps 691 mmHg 89%
    22:00 +17°C° 0 mm 0 mps 691 mmHg 94%
    23:00 +17°C° 0 mm 0 mps 691 mmHg 94%

    23 July, Tuesday

    Time Temperature Precipitation Wind Pressure Humidity
    00:00 +17°C° 0 mm 0 mps 691 mmHg 94%
    01:00 +16°C° 0 mm 0 mps 691 mmHg 94%
    02:00 +16°C° 0 mm 0 mps 690 mmHg 94%
    03:00 +16°C° 0 mm 0 mps 690 mmHg 93%
    04:00 +15°C° 0 mm 0 mps 690 mmHg 93%
    05:00 +17°C° 0 mm 0 mps 690 mmHg 87%
    06:00 +19°C° 0 mm 0 mps 691 mmHg 81%
    07:00 +21°C° 0 mm 0 mps 691 mmHg 76%
    08:00 +23°C° 0 mm 0 mps 691 mmHg 66%
    09:00 +27°C° 0 mm 1 mps 692 mmHg 56%
    10:00 +30°C° 0 mm 1 mps 692 mmHg 46%
    11:00 +30°C° 0 mm 1 mps 692 mmHg 42%
    12:00 +31°C° 0 mm 1 mps 692 mmHg 38%
    13:00 +32°C° 0 mm 2 mps 691 mmHg 35%
    14:00 +32°C° 0 mm 2 mps 691 mmHg 36%
    15:00 +32°C° 0 mm 2 mps 691 mmHg 37%
    16:00 +31°C° 0 mm 2 mps 691 mmHg 38%
    17:00 +30°C° 0 mm 2 mps 690 mmHg 49%
    18:00 +28°C° 0 mm 1 mps 690 mmHg 61%
    19:00 +26°C° 0 mm 1 mps 690 mmHg 72%
    20:00 +24°C° 0 mm 1 mps 689 mmHg 77%
    21:00 +22°C° 0 mm 1 mps 689 mmHg 81%
    22:00 +20°C° 0 mm 1 mps 689 mmHg 86%
    23:00 +20°C° 0 mm 1 mps 689 mmHg 85%

    24 July, Wednesday

    Time Temperature Precipitation Wind Pressure Humidity
    00:00 +20°C° 0 mm 1 mps 689 mmHg 85%
    01:00 +20°C° 0 mm 1 mps 689 mmHg 84%
    02:00 +20°C° 0 mm 1 mps 689 mmHg 85%
    03:00 +20°C° 0 mm 1 mps 688 mmHg 86%
    04:00 +19°C° 0 mm 1 mps 688 mmHg 87%
    05:00 +21°C° 0 mm 1 mps 689 mmHg 82%
    06:00 +21°C° 0 mm 0 mps 689 mmHg 77%
    07:00 +23°C° 0 mm 0 mps 689 mmHg 72%
    08:00 +25°C° 0 mm 0 mps 690 mmHg 63%
    09:00 +29°C° 0 mm 1 mps 690 mmHg 54%
    10:00 +31°C° 0 mm 1 mps 690 mmHg 45%
    11:00 +32°C° 0 mm 1 mps 690 mmHg 42%
    12:00 +33°C° 0 mm 1 mps 690 mmHg 39%
    13:00 +34°C° 0 mm 2 mps 690 mmHg 36%
    14:00 +34°C° 0 mm 2 mps 690 mmHg 38%
    15:00 +34°C° 0 mm 2 mps 689 mmHg 39%
    16:00 +32°C° 0 mm 2 mps 689 mmHg 41%
    17:00 +30°C° 0 mm 1 mps 689 mmHg 52%
    18:00 +28°C° 0 mm 1 mps 689 mmHg 64%
    19:00 +27°C° 0 mm 1 mps 688 mmHg 75%
    20:00 +25°C° 0.4 mm 1 mps 688 mmHg 79%
    21:00 +24°C° 0.4 mm 1 mps 688 mmHg 83%
    22:00 +22°C° 0.4 mm 1 mps 688 mmHg 87%
    23:00 +22°C° 0 mm 1 mps 688 mmHg 87%

    25 July, Thursday

    Time Temperature Precipitation Wind Pressure Humidity
    00:00 +22°C° 0 mm 1 mps 688 mmHg 87%
    01:00 +22°C° 0 mm 1 mps 688 mmHg 87%
    02:00 +22°C° 0.1 mm 1 mps 688 mmHg 88%
    03:00 +21°C° 0.1 mm 1 mps 688 mmHg 88%
    04:00 +20°C° 0.1 mm 2 mps 687 mmHg 89%
    05:00 +22°C° 0 mm 1 mps 688 mmHg 86%
    06:00 +23°C° 0 mm 1 mps 688 mmHg 83%
    07:00 +25°C° 0 mm 1 mps 688 mmHg 80%
    08:00 +27°C° 0.1 mm 1 mps 688 mmHg 70%
    09:00 +29°C° 0.1 mm 1 mps 689 mmHg 61%
    10:00 +32°C° 0.1 mm 1 mps 689 mmHg 51%
    11:00 +32°C° 0.6 mm 1 mps 689 mmHg 49%
    12:00 +33°C° 0.6 mm 1 mps 689 mmHg 47%
    13:00 +33°C° 0.6 mm 1 mps 688 mmHg 45%
    14:00 +32°C° 1 mm 1 mps 688 mmHg 50%
    15:00 +32°C° 1 mm 1 mps 688 mmHg 54%
    16:00 +31°C° 1 mm 1 mps 687 mmHg 58%
    17:00 +29°C° 1 mm 1 mps 687 mmHg 67%
    18:00 +25°C° 1 mm 0 mps 687 mmHg 75%
    19:00 +24°C° 1 mm 0 mps 687 mmHg 84%
    20:00 +23°C° 0.8 mm 0 mps 687 mmHg 85%
    21:00 +24°C° 0.8 mm 1 mps 687 mmHg 87%
    22:00 +23°C° 0.8 mm 1 mps 687 mmHg 89%
    23:00 +22°C° 0.2 mm 1 mps 687 mmHg 89%
    Show more